Home > Weather > Monterey > Past weeks

Flag for USA Past Weather in Monterey, California, USA — Yesterday and Last 2 Weeks

Now
58 °F

Sunny.


Feels Like: 57 °F
Forecast: 51 / 65 °F
Wind: 6 mph from North

Location: Monterey Peninsula Airport

Current Time: May 31, 2016 at 8:48:17 PM

Latest Report: May 31, 2016 at 7:54 PM


Visibility: 8 mi

Pressure: 29.90 "Hg

Humidity: 81%

Dew Point: 52 °F

Location of MontereyLocation

Past Weather in Monterey — Graph

°F

Monterey Temperature Yesterday

Maximum temperature yesterday: 65 °F (at 3:54 PM)
Minimum temperature yesterday: 50 °F (at 6:54 AM)
Average temperature yesterday: 56 °F

High & Low Weather Summary for the Past Weeks

 TemperatureHumidityPressure
High73 °F (May 17, 2:54 PM)100% (May 31, 4:54 AM)30.23 "Hg (May 31, 4:54 AM)
Low49 °F (May 22, 5:54 AM)41% (May 17, 4:54 PM)29.86 "Hg (May 28, 3:54 AM)
Average57 °F76%30.03 "Hg
* Reported May 16 6:54 PM — May 31 6:54 PM, Monterey, Weather by CustomWeather, © 2016

Note: Actual official high and low records may vary slightly from our data, if they occured in-between our weather recording intervals... More about our weather records

Advertising

Monterey Weather History for the Previous 24 Hours

Scroll right to see more
 ConditionsComfort  
Time TempWeatherWind HumidityBarometerVisibility
6:54 PM
Tue, May 31
62 °FSunny.5 mph73%29.90 "Hg7 mi
5:54 PM62 °FSunny.6 mph73%29.89 "Hg7 mi
4:54 PM63 °FSunny.7 mph70%29.90 "Hg8 mi
3:54 PM67 °FSunny.6 mph61%29.90 "Hg9 mi
2:54 PM66 °FSunny.5 mph63%29.92 "Hg9 mi
1:54 PM63 °FSunny.8 mph70%29.93 "Hg10 mi
12:54 PM63 °FSunny.8 mph70%29.93 "Hg10 mi
11:54 AM59 °FSunny.7 mph78%29.95 "Hg10 mi
10:54 AM57 °FScattered clouds.6 mph81%29.94 "Hg10 mi
9:54 AM55 °FScattered clouds.5 mph87%29.95 "Hg9 mi
8:54 AM54 °FSunny.5 mph86%29.95 "Hg10 mi
7:54 AM52 °FPassing clouds.No wind89%29.93 "Hg7 mi
6:54 AM49 °FFog.3 mph100%29.93 "Hg0 mi
5:57 AM50 °FFog.No wind96%29.89 "Hg1 mi
4:54 AM50 °FFog.No wind100%29.93 "Hg1 mi
3:54 AM51 °FFog.No wind96%29.93 "Hg1 mi
3:03 AM52 °FFog.No wind97%29.90 "Hg1 mi
1:54 AM52 °FFog.No wind97%29.95 "Hg1 mi
12:54 AM53 °FFog.No wind93%29.97 "Hg1 mi
11:54 PM
Mon, May 30
53 °FFog.3 mph96%29.98 "Hg4 mi
10:54 PM53 °FFog.No wind96%30.00 "Hg3 mi
9:54 PM54 °FFog.No wind93%30.01 "Hg6 mi
8:54 PM56 °FSunny.5 mph87%30.00 "Hg8 mi
Weather by CustomWeather, © 2016

See weather overviewHow to use our weather pages